User: anonymous   Login
Location: Unspecified
(0.0000°N, 0.0000°E)
Time: 07:30:33
(UTC+00:00)
Language:

NOSS 3-4 (A) - Orbit

View from above orbital plane
View from above orbital plane
View from above satellite
View from above satellite

Ground track
Ground track

The orbit data is extracted from the following two-line orbital elements,

1 31701U 07027A   24065.77323018 0.00000000  00000-0  00000-0 0    09
2 31701  63.3862 299.2843 0395525  21.1140 338.8860 13.40900386    07
Epoch (UTC): 05 March 2024 18:33:27
Eccentricity: 0.0395525
inclination: 63.3862°
perigee height: 810 km
apogee height: 1402 km
right ascension of ascending node: 299.2843°
argument of perigee: 21.1140°
revolutions per day: 13.40900386
mean anomaly at epoch: 338.8860°
orbit number at epoch: 0

The dashed part of the orbit path shows where the satellite is in the earth's shadow,  

DLR